TimeWET,TemperatureF,Dew PointF,Humidity,Sea Level PressureIn,VisibilityMPH,Wind Direction,Wind SpeedMPH,Gust SpeedMPH,PrecipitationIn,Events,Conditions,WindDirDegrees,DateUTC
12:00 AM,61,53,69,30.00,5,East,12.7,,,,Partly Cloudy,90,2012-11-26 00:00:00
12:00 AM,60.8,53.6,77,29.98,5.0,East,12.7,-,N/A,,Mostly Cloudy,90,2012-11-26 00:00:00
12:30 AM,60.8,53.6,77,29.98,5.0,East,10.4,-,N/A,,Mostly Cloudy,100,2012-11-26 00:30:00
1:00 AM,60.8,53.6,77,29.98,5.0,East,9.2,-,N/A,,Mostly Cloudy,90,2012-11-26 01:00:00
1:30 AM,60.8,53.6,77,29.98,3.7,East,8.1,-,N/A,,Mostly Cloudy,80,2012-11-26 01:30:00
2:00 AM,60.8,51.8,72,29.98,4.3,ENE,6.9,-,N/A,,Mostly Cloudy,60,2012-11-26 02:00:00
2:30 AM,60.8,51.8,72,29.95,5.6,East,6.9,-,N/A,,Unknown,90,2012-11-26 02:30:00
3:00 AM,61,53,67,29.97,4,East,10.4,,,,,80,2012-11-26 03:00:00
3:00 AM,60.8,53.6,77,29.95,4.3,East,10.4,-,N/A,,Unknown,80,2012-11-26 03:00:00
3:30 AM,59.0,51.8,77,29.95,4.3,East,8.1,-,N/A,,Unknown,80,2012-11-26 03:30:00
4:00 AM,59.0,53.6,82,29.95,3.7,ENE,8.1,-,N/A,,Unknown,70,2012-11-26 04:00:00
4:30 AM,60.8,53.6,77,29.95,3.7,East,9.2,-,N/A,,Unknown,80,2012-11-26 04:30:00
5:00 AM,60.8,53.6,77,29.95,3.7,East,10.4,-,N/A,,Unknown,90,2012-11-26 05:00:00
5:30 AM,60.8,53.6,77,29.95,3.7,ENE,6.9,-,N/A,,Unknown,70,2012-11-26 05:30:00
6:00 AM,60,53,72,29.98,5,East,6.9,,,,Partly Cloudy,80,2012-11-26 06:00:00
6:00 AM,60.8,53.6,77,29.98,5.0,East,6.9,-,N/A,,Scattered Clouds,80,2012-11-26 06:00:00
6:30 AM,60.8,55.4,82,29.98,5.0,ENE,10.4,-,N/A,,Scattered Clouds,70,2012-11-26 06:30:00
7:00 AM,60.8,55.4,82,29.98,5.0,East,6.9,-,N/A,,Scattered Clouds,90,2012-11-26 07:00:00
7:30 AM,60.8,53.6,77,29.98,5.0,ENE,8.1,-,N/A,,Scattered Clouds,70,2012-11-26 07:30:00
8:00 AM,60.8,55.4,82,29.98,5.0,East,8.1,-,N/A,,Scattered Clouds,90,2012-11-26 08:00:00
8:30 AM,60.8,55.4,82,29.98,5.0,East,10.4,-,N/A,,Scattered Clouds,90,2012-11-26 08:30:00
9:00 AM,61,55,75,30.02,5,ENE,11.5,,,,Partly Cloudy,70,2012-11-26 09:00:00
9:00 AM,60.8,55.4,82,30.01,5.0,ENE,11.5,-,N/A,,Scattered Clouds,70,2012-11-26 09:00:00
9:30 AM,62.6,55.4,77,30.01,5.0,East,9.2,-,N/A,,Scattered Clouds,80,2012-11-26 09:30:00
10:30 AM,64.4,57.2,77,30.01,5.0,SE,5.8,-,N/A,,Mostly Cloudy,130,2012-11-26 10:30:00
11:00 AM,64.4,55.4,73,30.01,5.0,East,3.5,-,N/A,,Mostly Cloudy,80,2012-11-26 11:00:00
11:30 AM,64.4,57.2,77,29.98,5.0,NE,4.6,-,N/A,,Mostly Cloudy,50,2012-11-26 11:30:00
12:00 PM,68,58,62,29.99,5,ESE,4.6,,,,Partly Cloudy,120,2012-11-26 12:00:00
12:00 PM,68.0,59.0,73,29.98,5.0,ESE,4.6,-,N/A,,Scattered Clouds,120,2012-11-26 12:00:00
12:30 PM,69.8,53.6,56,29.95,5.0,NE,8.1,-,N/A,,Scattered Clouds,50,2012-11-26 12:30:00
1:00 PM,71.6,53.6,53,29.95,5.0,NNE,10.4,-,N/A,,Scattered Clouds,20,2012-11-26 13:00:00
1:30 PM,69.8,55.4,60,29.95,5.0,NNE,9.2,-,N/A,,Mostly Cloudy,20,2012-11-26 13:30:00
2:00 PM,68.0,59.0,73,29.95,5.0,NNW,11.5,-,N/A,,Mostly Cloudy,330,2012-11-26 14:00:00
2:30 PM,68.0,59.0,73,29.95,5.0,NNW,11.5,-,N/A,,Scattered Clouds,340,2012-11-26 14:30:00
3:00 PM,67,55,56,29.95,5,North,9.2,,,,Scattered Clouds,0,2012-11-26 15:00:00
3:00 PM,66.2,55.4,68,29.95,5.0,North,9.2,-,N/A,,Scattered Clouds,360,2012-11-26 15:00:00
3:30 PM,66.2,59.0,78,29.95,5.0,North,9.2,-,N/A,,Mostly Cloudy,350,2012-11-26 15:30:00
4:00 PM,66.2,59.0,78,29.95,5.0,North,8.1,-,N/A,,Mostly Cloudy,350,2012-11-26 16:00:00
4:30 PM,64.4,57.2,77,29.95,5.0,NNW,9.2,-,N/A,,Mostly Cloudy,340,2012-11-26 16:30:00
5:00 PM,62.6,57.2,82,29.95,5.0,North,10.4,-,N/A,,Mostly Cloudy,350,2012-11-26 17:00:00
5:30 PM,62.6,55.4,77,29.95,5.0,North,6.9,-,N/A,,Mostly Cloudy,350,2012-11-26 17:30:00
6:00 PM,61,56,77,29.97,5,NNW,5.8,,,,Partly Cloudy,340,2012-11-26 18:00:00
6:00 PM,60.8,55.4,82,29.95,5.0,NNW,5.8,-,N/A,,Mostly Cloudy,340,2012-11-26 18:00:00
6:30 PM,60.8,55.4,82,29.95,5.0,NNW,3.5,-,N/A,,Mostly Cloudy,340,2012-11-26 18:30:00
7:00 PM,60.8,53.6,77,29.95,5.0,NNW,5.8,-,N/A,,Mostly Cloudy,330,2012-11-26 19:00:00
7:30 PM,60.8,51.8,72,29.98,5.0,NNW,9.2,-,N/A,,Mostly Cloudy,340,2012-11-26 19:30:00
8:00 PM,59.0,50.0,72,29.98,5.0,NNW,8.1,-,N/A,,Mostly Cloudy,330,2012-11-26 20:00:00
8:30 PM,59.0,50.0,72,29.98,5.0,NW,9.2,-,N/A,,Mostly Cloudy,320,2012-11-26 20:30:00
9:00 PM,57,50,70,30.00,3,NW,5.8,,,Rain,Light Rain,320,2012-11-26 21:00:00
9:00 PM,57.2,50.0,77,29.98,3.1,NW,4.6,-,N/A,Rain,Light Rain,320,2012-11-26 21:00:00
9:30 PM,57.2,50.0,77,29.98,3.7,NW,6.9,-,N/A,,Mostly Cloudy,310,2012-11-26 21:30:00
10:00 PM,57.2,50.0,77,29.98,3.7,NNW,6.9,-,N/A,,Mostly Cloudy,330,2012-11-26 22:00:00
10:30 PM,57.2,50.0,77,29.98,3.7,NNW,4.6,-,N/A,,Mostly Cloudy,330,2012-11-26 22:30:00
11:00 PM,57.2,50.0,77,29.98,3.7,NNW,4.6,-,N/A,,Mostly Cloudy,330,2012-11-26 23:00:00
11:30 PM,59.0,50.0,72,29.98,3.7,NNW,10.4,-,N/A,,Mostly Cloudy,330,2012-11-26 23:30:00